Kaneohe MCBH, HI

3:47 PM HST on November 17, 2017 (GMT -1000)
Kaneohe Bay Marine Corps Air Facility

Weather History for PHNG - January, 2013

Change the Weather History Date:

Thursday, January 24, 2013

  Actual Average Record
Temperature  
Mean Temperature 72 °F -  
Max Temperature 75 °F 75 °F 82 °F (2003)
Min Temperature 69 °F 66 °F 62 °F (1997)
Cooling Degree Days 7    
Growing Degree Days 22 (Base 50)    
Moisture  
Dew Point 66 °F    
Average Humidity 82    
Maximum Humidity 94    
Minimum Humidity 70    
Precipitation  
Precipitation 0.15 in - - ()
Sea Level Pressure  
Sea Level Pressure 30.05 in    
Wind  
Wind Speed 7 mph (East)    
Max Wind Speed 13 mph    
Max Gust Speed 21 mph    
Visibility 8 miles    
Events Rain    
Averages and records for this station are not official NWS values.
T = Trace of Precipitation, MM = Missing Value Source: NWS Daily Summary

Daily Weather History Graph

Daily Weather History Graph

Search for Another Location

Airport or City:

Trip Planner

Search our weather history database for the weather conditions in past years. The results will help you decide how hot, cold, wet, or windy it might be!

Date:

Astronomy

Jan. 24, 2013 Rise Set
Actual Time 7:10 AM HST 6:16 PM HST
Civil Twilight 6:47 AM HST 6:39 PM HST
Nautical Twilight 6:20 AM HST 7:06 PM HST
Astronomical Twilight 5:53 AM HST 7:33 PM HST
Moon 4:31 PM HST (1/24) 5:12 AM HST (1/24)
Length of Visible Light 11h 52m
Length of Day
11h 05m
Waxing Gibbous, 95% of the Moon is Illuminated
Jan 24
Waxing Gibbous
Jan 26
Full
Feb 3
Last Quarter
Feb 9
New
Feb 17
First Quarter

Hourly Weather History & Observations

Time (HST) Temp. Dew Point Humidity Pressure Visibility Wind Dir Wind Speed Gust Speed Precip Events Conditions
12:07 AM 69.8 °F 64.4 °F 83% 30.05 in 6.2 mi East 9.2 mph - N/A   Overcast
12:15 AM 69.8 °F 64.4 °F 83% 30.05 in 6.2 mi East 8.1 mph - N/A   Overcast
12:57 AM 72.1 °F 64.9 °F 78% 30.03 in 10.0 mi East 9.2 mph 18.4 mph N/A   Overcast
1:57 AM 72.3 °F 64.9 °F 78% 30.02 in 10.0 mi ESE 11.5 mph 19.6 mph N/A   Overcast
2:14 AM 71.6 °F 66.2 °F 83% 30.03 in 6.2 mi ESE 9.2 mph - N/A   Overcast
2:57 AM 70.5 °F 66.0 °F 86% 30.01 in 10.0 mi Calm Calm - N/A Rain Heavy Rain
3:12 AM 69.8 °F 66.2 °F 88% 30.03 in 6.2 mi East 5.8 mph - 0.01 in Rain Light Rain
3:57 AM 69.6 °F 66.9 °F 91% 30.01 in 10.0 mi Calm Calm - 0.04 in Rain Light Rain
4:08 AM - - N/A% 30.03 in 6.2 mi Calm Calm - 0.02 in Rain Rain
4:57 AM 69.3 °F 66.0 °F 89% 30.01 in 10.0 mi South 3.5 mph - 0.04 in   Overcast
5:55 AM 69.8 °F 66.2 °F 88% 30.04 in 6.2 mi Calm Calm - N/A   Mostly Cloudy
5:57 AM 69.3 °F 66.0 °F 89% 30.02 in - East 6.9 mph - N/A   Mostly Cloudy
6:57 AM 69.3 °F 64.9 °F 86% 30.04 in 10.0 mi East 9.2 mph 20.7 mph 0.00 in Rain Light Rain
7:43 AM 69.8 °F 64.4 °F 83% 30.07 in 6.2 mi ENE 9.2 mph - 0.00 in   Overcast
7:57 AM 71.6 °F 64.0 °F 77% 30.06 in 10.0 mi ENE 9.2 mph 18.4 mph 0.00 in   Mostly Cloudy
8:17 AM - - N/A% 30.07 in 6.2 mi East 9.2 mph 18.4 mph N/A   Mostly Cloudy
8:57 AM 72.9 °F 64.9 °F 76% 30.06 in 10.0 mi ENE 10.4 mph 19.6 mph N/A   Overcast
9:57 AM 73.4 °F 66.0 °F 78% 30.08 in 10.0 mi East 9.2 mph - 0.04 in   Mostly Cloudy
10:04 AM - - N/A% 30.10 in 6.2 mi East 8.1 mph 17.3 mph 0.02 in Rain Rain
10:13 AM 73.4 °F 66.2 °F 78% 30.10 in 6.2 mi NE 6.9 mph - 0.02 in Rain Light Rain
10:57 AM 73.4 °F 66.9 °F 80% 30.08 in 10.0 mi East 12.7 mph 20.7 mph 0.02 in   Mostly Cloudy
11:18 AM 73.4 °F 66.2 °F 78% 30.09 in 6.2 mi East 12.7 mph 19.6 mph N/A   Overcast
11:35 AM 73.4 °F 66.2 °F 78% 30.09 in 6.2 mi East 10.4 mph 17.3 mph N/A   Overcast
11:50 AM 73.4 °F 66.2 °F 78% 30.08 in 6.2 mi ESE 9.2 mph 18.4 mph N/A   Overcast
11:57 AM 73.4 °F 66.0 °F 78% 30.06 in 7.0 mi East 10.4 mph 17.3 mph N/A   Overcast
12:57 PM 73.4 °F 64.0 °F 72% 30.04 in 7.0 mi ENE 12.7 mph 20.7 mph N/A   Mostly Cloudy
1:04 PM 73.4 °F 64.4 °F 73% 30.05 in - ENE 10.4 mph 18.4 mph N/A   Mostly Cloudy
1:57 PM 73.4 °F 64.0 °F 72% 30.02 in 7.0 mi East 10.4 mph 18.4 mph N/A   Mostly Cloudy
2:57 PM 75.2 °F 64.9 °F 70% 30.01 in 7.0 mi ESE 11.5 mph 18.4 mph 0.00 in Rain Light Rain
3:57 PM 73.4 °F 64.0 °F 72% 30.02 in 7.0 mi SW 9.2 mph - 0.00 in   Mostly Cloudy
4:04 PM 73.4 °F 66.2 °F 78% 30.03 in 6.2 mi Variable 5.8 mph - 0.01 in Rain Light Rain
4:57 PM 73.4 °F 66.0 °F 78% 30.01 in 7.0 mi Calm Calm - 0.01 in   Mostly Cloudy
5:57 PM 73.4 °F 66.9 °F 80% 30.01 in 10.0 mi SE 3.5 mph - N/A   Partly Cloudy
6:57 PM 72.1 °F 66.0 °F 81% 30.03 in 10.0 mi Calm Calm - N/A   Clear
7:57 PM 69.6 °F 64.9 °F 85% 30.04 in 10.0 mi Calm Calm - N/A   Clear
8:57 PM 69.8 °F 64.9 °F 84% 30.05 in 7.0 mi Calm Calm - N/A   Mostly Cloudy
9:41 PM 69.8 °F 64.4 °F 83% 30.07 in - Calm Calm - N/A   Scattered Clouds
9:57 PM 69.8 °F 64.9 °F 84% 30.06 in 7.0 mi Calm Calm - N/A   Scattered Clouds
10:07 PM 69.8 °F 68.0 °F 94% 30.08 in 6.2 mi Calm Calm - N/A   Mostly Cloudy
10:40 PM 69.8 °F 68.0 °F 94% 30.08 in 6.2 mi Calm Calm - N/A   Overcast
10:57 PM 69.8 °F 67.3 °F 92% 30.06 in 10.0 mi South 3.5 mph - N/A   Overcast
11:57 PM 69.8 °F 64.9 °F 84% 30.06 in - Calm Calm - N/A   Clear